ANIK F1R

Last updated on Thu Jul 03 2025 00:02:44 GMT+0000 (Coordinated Universal Time)

1 28868U 05036A 25183.54533583 -.00000069 00000+0 00000+0 0 9995 2 28868 3.4151 80.9720 0003672 11.7056 277.1598 1.00271342 42940
UTC large
Height (km)
Speed (km/s)
/
Latitude / Longitude
Inclination (degrees)
Orbital Period (minutes)
Azimuth
Elevation
Range (km)
Doppler Factor

Next 0 passes for location: London (51.5072 / 0.1276)

Sorry there are no passes over London.